Skip Page Navigation
NASA JPL Caltech
NASA Logo - Jet Propulsion Laboratory + View the NASA Portal
+ Center for Near-Earth Object Studies
JPL Home Earth Solar System Stars & Galaxies Technology
JPL Solar System Dynamics
BODIES ORBITS EPHEMERIDES TOOLS PHYSICAL DATA DISCOVERY FAQ SITE MAP
JPL Small-Body Database Browser
Search: [ help ]  
101682 (1999 CN110)
Classification: Main-belt Asteroid          SPK-ID: 2101682
Ephemeris | Orbit Diagram | Orbital Elements | Mission Design | Physical Parameters | Discovery Circumstances | Close-Approach Data ]

[ show orbit diagram ]
Orbital Elements at Epoch 2459200.5 (2020-Dec-17.0) TDB
Reference: JPL 29 (heliocentric ecliptic J2000)
 Element Value Uncertainty (1-sigma)   Units 
e .145110346177117 4.3842e-08  
a 2.76203834983624 1.5672e-08 au
q 2.36123800873703 1.2183e-07 au
i 9.274141489719831 4.8409e-06 deg
node 229.689519262578 2.2814e-05 deg
peri 358.0905286988535 2.6874e-05 deg
M 206.1571166239863 1.6862e-05 deg
tp 2459917.002802714964
(2022-Dec-03.50280272)
8.1322e-05 TDB
period 1676.652200719243
4.59
1.427e-05
3.907e-08
d
yr
n .2147135821284634 1.8275e-09 deg/d
Q 3.16283869093545 1.7946e-08 au
  Orbit Determination Parameters
   # obs. used (total)      753  
   data-arc span      8034 days (22.00 yr)  
   first obs. used      1999-02-12  
   last obs. used      2021-02-10  
   planetary ephem.      DE441  
   SB-pert. ephem.      SB441-N16  
   condition code      0  
   norm. resid. RMS      .53724  
   source      ORB  
   producer      Otto Matic  
   solution date      2021-Apr-13 15:38:02  

Additional Information
 Earth MOID = 1.35016 au 
 Jupiter MOID = 1.82966 au 
 T_jup = 3.307 
[ show covariance matrix ]

Ephemeris | Orbit Diagram | Orbital Elements | Mission Design | Physical Parameters | Discovery Circumstances | Close-Approach Data ]

Physical Parameter Table
Parameter Symbol Value Units Sigma Reference Notes
absolute magnitude H 15.1   n/a MPO299591  
diameter diameter 5.546 km 0.077 urn:nasa:pds:neowise_diameters_albedos::2.0[mainbelt] (http://adsabs.harvard.edu/abs/2011ApJ...741...68M)  
geometric albedo albedo 0.076   0.009 urn:nasa:pds:neowise_diameters_albedos::2.0[mainbelt] (http://adsabs.harvard.edu/abs/2011ApJ...741...68M)  

101682 (1999 CN110)          Discovered 1999-Feb-12 by LINEAR at Socorro
Reference: 20051019/Numbers.arcLast Updated: 2005-10-26

[ show close-approach data ]
Alternate Designations
 1999 CN110 = 2001 TB88 
Ephemeris | Orbit Diagram | Orbital Elements | Mission Design | Physical Parameters | Discovery Circumstances | Close-Approach Data ]
ABOUT SSD CREDITS/AWARDS PRIVACY/COPYRIGHT GLOSSARY LINKS
FirstGov 2021-Apr-22 11:03 UT
(server date/time)  
NASA Home Page
Site Manager:   Ryan S. Park
Webmaster  Alan B. Chamberlin